Terug naar catalogus

UGATUSAT

ActiefWetenschapSSO
NORAD 35869·PAYLOAD·🇷🇺 Russia

Gelanceerd Sep 17, 2009 vanaf Baikonur Cosmodrome

Loading…

Volgende Passages (komende 24 uur)

TLE

VersSource: Space-Track

Epoch: Sep 14, 2026, 15:42 UTC

1 35869U 09049E   26257.65476778  .00000040  00000-0  37085-4 0  9996
2 35869  98.7507 218.9220 0005325  52.2919 307.8741 14.23229656882150

Volg UGATUSAT in realtime met AllMySat

Download on the App Store